Location: Malvern Link
(52.1333°N, 2.3000°W)
Time: 03:36:13
(UTC+00:00)

DIWATA 2B (PO-101) - Pass Details

Date: 25 June 2022
Orbit: 583 x 599 km, 98.0° (Epoch: 13 August)

Event Time Altitude Azimuth Distance (km) Brightness Sun altitude
Exits shadow 02:25:50 10° 192° (SSW) 1,907 ? -9.0°
Maximum altitude 02:29:44 40° 262° (W) 891 ? -8.7°
Drops below altitude 10° 02:33:44 10° 333° (NNW) 1,952 ? -8.4°
Sets 02:36:02 0° 341° (NNW) 2,861 ? -8.2°
